Location: ????
(55.5675°N, 37.6272°E)
Time: 07:38:14
(UTC+00:00)

Cosmos 1782 Rocket - Pass Details

Date: 14 April 2026
Orbit: 600 x 624 km, 82.5° (Epoch: 12 May)

Event Time Altitude Azimuth Distance (km) Brightness Sun altitude
Exits shadow 19:01:53 31° 102° (ESE) 1,078 4.4 -17.9°
Maximum altitude 19:02:19 31° 90° (E) 1,063 4.4 -18.0°
Drops below altitude 10° 19:06:08 10° 28° (NNE) 1,958 6.4 -18.3°
Sets 19:08:31 0° 19° (NNE) 2,866 7.5 -18.5°
